Alejskaja, Russia
Current Conditions -  °F | °C
As of 2:00 PM on Friday 24 Oct 2014 (Local Time) from UNBB Reporting Station
Broken Clouds Broken Clouds  
Wind Chill: 40°   Ceiling: 2000
Heat Index: 46°   Visibility: 6mi
Dew Point: 39°   Wind: 13mph
Humidity: 76%   Direction: 220°SW
Pressure: 29.88"   Gusts: NA
Location:  52.52°N, 82.77°E
Report Text: UNBB 240700Z 22006MPS 9999 BKN020 08/04 Q1012 NOSIG RMKQFE737/0982 24190057
Loading
Personal Weather Stations






























Interactive Weather Map
Tropical Storm Tracking
New forecast layout! Learn more

10-Day Weather Forecast

Advertisements
Track Severe Weather on mobile